Location: Colebrook
(42.0017°N, 73.0973°W)
Time: 14:20:04
(UTC-04:00)

Envisat - Pass Details

Date: 29 September 2021
Orbit: 764 x 766 km, 98.2° (Epoch: 22 October)

Event Time Altitude Azimuth Distance (km) Brightness Sun altitude
Rises 05:49:16 0° 16° (NNE) 3,240 6.6 -11.6°
Reaches altitude 10° 05:51:36 10° 19° (NNE) 2,309 5.8 -11.2°
Maximum altitude 05:56:39 64° 101° (E) 849 3.5 -10.3°
Drops below altitude 10° 06:01:40 10° 183° (S) 2,292 5.4 -9.3°
Sets 06:03:59 0° 186° (S) 3,213 6.1 -8.9°
